[[{"header":{"parameterUnit":"m.s-1","parameterCategory":1,"la1":30.2991,"la2":30.254,"lo1":-89.0895,"lo2":-89.0444,"dy":0.0017,"dx":0.0017,"nx":28,"ny":28,"refTime":"2023-10-21T09:00:00:Z","depth":0,"parameterNumber":2,"parameterNumberName":"U-component_of_WINDS"},"data":[0,0,0,0,0,0,0,0,0,0,0,0,0,0,0,0,0,0,0,0,0,0,0,0,0,0,0,0,0,0,0,0,0,0,0,0,0,0,0,0,0,0,0,0,0,0,0,0,0,0,0,0,0,0,0,0,0,0,0.4209,0.4208,0,0.415,0.415,0.4149,0.4118,0.4118,0.4118,0.4118,0.4056,0.4055,0.4053,0,0,0,0,0,0,0,0,0,0,0,0,0,0.4294,0.4292,0.4209,0.4208,0.4208,0.415,0.415,0.4149,0.4118,0.4118,0.4118,0.4118,0.4057,0.4055,0.4053,0,0,0,0,0,0,0,0,0,0,0,0,0,0.4248,0.4292,0.4209,0.4185,0.4183,0.4151,0.415,0.4149,0.4118,0.4118,0.4118,0.4118,0.4058,0.4055,0.4053,0.4039,0,0,0.4045,0.4044,0,0,0,0,0,0,0,0,0.4251,0.4245,0.419,0.4187,0.4184,0.4142,0.4157,0.4112,0.4118,0.4143,0.4118,0.4118,0.4085,0.408,0.4069,0.4036,0.4034,0.4045,0.4044,0.4043,0.4042,0,0,0,0,0,0,0,0.4254,0.4247,0.4186,0.4189,0.4185,0.4177,0.4171,0.4148,0.4115,0.4141,0.4138,0.4132,0.4083,0.4071,0.4067,0.4033,0.4045,0.4043,0.4042,0.4041,0.3987,0.3987,0,0,0,0,0,0,0.4261,0.425,0.4188,0.4184,0.4218,0.4176,0.4169,0.4155,0.4115,0.4109,0.4132,0.4131,0.4076,0.407,0.4065,0.4047,0.4043,0.4041,0.4039,0.3987,0.3987,0.3987,0,0,0,0,0,0,0.4263,0.4256,0.419,0.4216,0.4208,0.4175,0.416,0.4154,0.4142,0.4108,0.4102,0.4126,0.4075,0.4069,0.4046,0.4045,0.4039,0.4037,0.3987,0.3987,0.3987,0.4011,0,0,0,0,0,0,0.4266,0.4257,0.4251,0.4217,0.4206,0.4172,0.416,0.4153,0.4139,0.4136,0.4101,0.4096,0.4075,0.405,0.4044,0.4041,0.4035,0.3987,0.3987,0.3987,0.401,0.4012,0.4013,0,0,0,0,0,0.4269,0.426,0.4251,0.4244,0.4199,0.4172,0.4166,0.4143,0.4139,0.4133,0.4111,0.4097,0.4046,0.4048,0.4041,0.4037,0.3987,0.3987,0.3987,0.4009,0.4011,0.4013,0,0,0,0,0,0,0.4294,0.4255,0.4245,0.4224,0.4202,0.4167,0.4159,0.4146,0.4124,0.4122,0.4094,0.4087,0.4067,0.405,0.4053,0.4023,0.4015,0.4014,0.4034,0.4036,0.4038,0.4042,0.4033,0,0,0,0,0,0.4298,0.428,0.4246,0.4231,0.4221,0.4192,0.418,0.4164,0.4139,0.4129,0.4106,0.4082,0.4061,0.4048,0.4026,0.4008,0.4,0.4002,0.4003,0.4005,0.4004,0.3993,0.3994,0.3987,0.3987,0.3987,0,0,0.4304,0.428,0.4271,0.4236,0.4217,0.4199,0.4184,0.4165,0.4152,0.4126,0.4104,0.4086,0.4058,0.4038,0.4028,0.4023,0.4004,0.4005,0.4006,0.4004,0.3994,0.3994,0.3995,0.3987,0.3987,0.3987,0,0,0.4307,0.4287,0.4273,0.4254,0.4226,0.4207,0.4204,0.4171,0.4159,0.4136,0.4117,0.41,0.4064,0.4045,0.4031,0.4028,0.4014,0.4022,0.4029,0.402,0.402,0.4021,0.402,0.402,0.4021,0.4021,0.4021,0,0.4318,0.4291,0.4267,0.425,0.4235,0.4213,0.4198,0.4181,0.4147,0.4137,0.4133,0.4088,0.4067,0.4043,0.4042,0.4031,0.4027,0.4025,0.4022,0.4022,0.4022,0.4021,0.4021,0.4022,0.4022,0.4022,0.4022,0,0.4306,0.4288,0.428,0.4248,0.4233,0.4217,0.4191,0.4178,0.4164,0.4146,0.4124,0.4099,0.4072,0.4065,0.4051,0.4039,0.4037,0.4028,0.4019,0.4024,0.4023,0.4022,0.4024,0.4023,0.4023,0.4023,0,0,0.4322,0.4279,0.4277,0.4262,0.423,0.4215,0.4199,0.4173,0.4163,0.4141,0.4126,0.4097,0.4089,0.4072,0.4056,0.4047,0.4047,0.4039,0.4038,0.4042,0.4033,0.404,0.404,0.4038,0.4038,0.4038,0.4036,0,0.432,0.429,0.4269,0.4247,0.423,0.4208,0.4194,0.4173,0.4156,0.4138,0.4119,0.4099,0.4089,0.408,0.407,0.4049,0.4045,0.4049,0.4024,0.4024,0.4032,0.4039,0.4046,0.4045,0.4035,0.4035,0.4035,0,0.4313,0.4293,0.4269,0.424,0.4232,0.4219,0.4195,0.4179,0.4154,0.4143,0.4125,0.4109,0.4091,0.4085,0.4059,0.4063,0.4051,0.404,0.4039,0.4036,0.4029,0.4036,0.4045,0.4045,0.4034,0.4034,0.4034,0,0.4328,0.4294,0.4276,0.4264,0.4229,0.4221,0.4206,0.4182,0.4168,0.4147,0.4138,0.4115,0.4102,0.4085,0.4063,0.406,0.404,0.4032,0.4029,0.403,0.4026,0.4026,0.4032,0.4019,0.4019,0.4019,0.4019,0,0.4328,0.4314,0.4282,0.4271,0.4255,0.4231,0.4216,0.42,0.4178,0.4164,0.4144,0.413,0.4102,0.4085,0.4067,0.4049,0.4044,0.4033,0.4029,0.4035,0.4036,0.4027,0.4026,0.4019,0.4019,0.4019,0.4019,0,0.434,0.4318,0.4297,0.4267,0.4259,0.4248,0.4222,0.421,0.4193,0.4174,0.4169,0.4141,0.412,0.4096,0.4067,0.4055,0.4039,0.4032,0.4047,0.4045,0.4044,0.4044,0.4044,0.4043,0.403,0.4031,0.4031,0,0.4342,0.4331,0.43,0.4289,0.4275,0.4257,0.4244,0.422,0.4207,0.4179,0.4171,0.4149,0.413,0.4098,0.4075,0.4053,0.4045,0.4047,0.4042,0.4049,0.4045,0.4046,0.4045,0.4048,0.4048,0.4048,0.4049,0,0.4346,0.4336,0.4318,0.4296,0.4281,0.4263,0.4243,0.4235,0.4208,0.4194,0.4173,0.4159,0.413,0.4108,0.4084,0.4068,0.4054,0.4051,0.4049,0.4055,0.4064,0.406,0.4051,0.4051,0.405,0.405,0.405,0.405,0.4353,0.4343,0.432,0.43,0.4284,0.4267,0.4254,0.4236,0.4218,0.4193,0.4181,0.416,0.4137,0.4102,0.4087,0.4071,0.4066,0.4063,0.4063,0.4063,0.4064,0.4067,0.4066,0.4066,0.4066,0.4066,0.4066,0,0.4357,0.4341,0.4324,0.4298,0.4283,0.4272,0.425,0.4238,0.4221,0.4201,0.4183,0.4159,0.4138,0.4114,0.4092,0.4084,0.4077,0.4079,0.4079,0.4076,0.407,0.4074,0.4085,0.4085,0.4085,0.4085,0.4085,0.4085,0.4357,0.4339,0.4327,0.4301,0.4286,0.4266,0.4254,0.4239,0.4223,0.4197,0.418,0.4165,0.4144,0.412,0.4101,0.4094,0.4087,0.4091,0.4082,0.4077,0.4076,0.4074,0.4078,0.4089,0.4089,0.4089,0.4089,0.4089]},{"header":{"parameterUnit":"m.s-1","parameterCategory":1,"la1":30.2991,"la2":30.254,"lo1":-89.0895,"lo2":-89.0444,"dy":0.0017,"dx":0.0017,"nx":28,"ny":28,"refTime":"2023-10-21T09:00:00:Z","depth":0,"parameterNumber":3,"parameterNumberName":"V-component_of_WINDS"},"data":[0,0,0,0,0,0,0,0,0,0,0,0,0,0,0,0,0,0,0,0,0,0,0,0,0,0,0,0,0,0,0,0,0,0,0,0,0,0,0,0,0,0,0,0,0,0,0,0,0,0,0,0,0,0,0,0,0,0,-0.328,-0.328,0,-0.3341,-0.3342,-0.3343,-0.3368,-0.3368,-0.3368,-0.3368,-0.343,-0.3431,-0.3433,0,0,0,0,0,0,0,0,0,0,0,0,0,-0.3183,-0.3185,-0.328,-0.328,-0.3281,-0.3341,-0.3342,-0.3343,-0.3368,-0.3368,-0.3368,-0.3368,-0.3429,-0.3431,-0.3433,0,0,0,0,0,0,0,0,0,0,0,0,0,-0.3233,-0.3185,-0.328,-0.3301,-0.3304,-0.3341,-0.3342,-0.3343,-0.3368,-0.3368,-0.3368,-0.3368,-0.3428,-0.3431,-0.3433,-0.3453,0,0,-0.3441,-0.3443,0,0,0,0,0,0,0,0,-0.323,-0.3236,-0.3297,-0.33,-0.3303,-0.3347,-0.3331,-0.338,-0.3368,-0.3344,-0.3368,-0.3368,-0.3402,-0.3407,-0.3419,-0.3456,-0.3459,-0.3442,-0.3443,-0.3444,-0.3445,0,0,0,0,0,0,0,-0.3226,-0.3234,-0.3304,-0.3298,-0.3301,-0.3308,-0.3314,-0.334,-0.3373,-0.3346,-0.3348,-0.3355,-0.3404,-0.3416,-0.342,-0.346,-0.3442,-0.3444,-0.3446,-0.3447,-0.3518,-0.3518,0,0,0,0,0,0,-0.322,-0.3231,-0.3302,-0.3306,-0.3265,-0.3309,-0.3317,-0.3333,-0.3373,-0.3379,-0.3355,-0.3356,-0.3412,-0.3417,-0.3423,-0.345,-0.3444,-0.3447,-0.3448,-0.3518,-0.3518,-0.3518,0,0,0,0,0,0,-0.3217,-0.3226,-0.33,-0.3269,-0.3279,-0.3311,-0.3329,-0.3334,-0.3347,-0.338,-0.3386,-0.3362,-0.3412,-0.3419,-0.3446,-0.3452,-0.3448,-0.345,-0.3517,-0.3518,-0.3518,-0.3503,0,0,0,0,0,0,-0.3214,-0.3225,-0.3233,-0.3269,-0.328,-0.3322,-0.3329,-0.3336,-0.3352,-0.3353,-0.3388,-0.3394,-0.3412,-0.3442,-0.3449,-0.3456,-0.3453,-0.3517,-0.3518,-0.3518,-0.3503,-0.3503,-0.3503,0,0,0,0,0,-0.3211,-0.3225,-0.3233,-0.3242,-0.3291,-0.3322,-0.3329,-0.3351,-0.3352,-0.336,-0.3382,-0.3392,-0.345,-0.3445,-0.3452,-0.346,-0.3517,-0.3517,-0.3518,-0.3503,-0.3503,-0.3503,0,0,0,0,0,0,-0.3188,-0.323,-0.3239,-0.3266,-0.3291,-0.3327,-0.3338,-0.3349,-0.3373,-0.3374,-0.34,-0.3407,-0.3432,-0.3449,-0.3442,-0.3482,-0.3484,-0.3487,-0.347,-0.347,-0.347,-0.3465,-0.3455,0,0,0,0,0,-0.3186,-0.3209,-0.3244,-0.3264,-0.3276,-0.3305,-0.3319,-0.3334,-0.336,-0.337,-0.3394,-0.3418,-0.3442,-0.3457,-0.3481,-0.3506,-0.3514,-0.3515,-0.3515,-0.3514,-0.3516,-0.3531,-0.3532,-0.3521,-0.3521,-0.3521,0,0,-0.3183,-0.3209,-0.3221,-0.326,-0.3281,-0.3303,-0.3313,-0.3336,-0.3353,-0.3374,-0.3401,-0.3419,-0.3448,-0.3474,-0.3487,-0.3489,-0.3521,-0.3515,-0.3515,-0.3517,-0.3532,-0.3533,-0.3534,-0.3521,-0.3521,-0.3521,0,0,-0.3188,-0.3209,-0.3229,-0.325,-0.3281,-0.33,-0.3305,-0.334,-0.3353,-0.3381,-0.3397,-0.3417,-0.3457,-0.3478,-0.3493,-0.3507,-0.3518,-0.3514,-0.3513,-0.3527,-0.3528,-0.3529,-0.3534,-0.3536,-0.3515,-0.3515,-0.3515,0,-0.3179,-0.3213,-0.3237,-0.326,-0.3277,-0.3297,-0.3317,-0.3336,-0.3374,-0.3385,-0.3387,-0.3439,-0.346,-0.3491,-0.3495,-0.3506,-0.3513,-0.351,-0.3526,-0.3527,-0.3528,-0.3534,-0.3536,-0.3515,-0.3515,-0.3515,-0.3515,0,-0.3201,-0.3225,-0.3237,-0.3274,-0.3292,-0.3313,-0.334,-0.3356,-0.3369,-0.3388,-0.3417,-0.3443,-0.3472,-0.3481,-0.3494,-0.3515,-0.3515,-0.3521,-0.3524,-0.3528,-0.3534,-0.3536,-0.3514,-0.3514,-0.3514,-0.3514,0,0,-0.3193,-0.3243,-0.3247,-0.3264,-0.3301,-0.332,-0.3342,-0.3372,-0.3385,-0.341,-0.343,-0.3464,-0.347,-0.3488,-0.3503,-0.3516,-0.3526,-0.3521,-0.3522,-0.3521,-0.3551,-0.3546,-0.3548,-0.3534,-0.3534,-0.3534,-0.3549,0,-0.3203,-0.3244,-0.3266,-0.3298,-0.3321,-0.3341,-0.3361,-0.3385,-0.3404,-0.3425,-0.3445,-0.347,-0.3476,-0.3487,-0.35,-0.3522,-0.3532,-0.3521,-0.3552,-0.3552,-0.3544,-0.3551,-0.3546,-0.3558,-0.3551,-0.3551,-0.3552,0,-0.322,-0.3246,-0.328,-0.3315,-0.3325,-0.3342,-0.3372,-0.3392,-0.3421,-0.3434,-0.3454,-0.347,-0.3494,-0.3495,-0.3529,-0.3521,-0.3534,-0.3547,-0.3548,-0.3552,-0.3552,-0.3555,-0.3563,-0.3565,-0.3555,-0.3555,-0.3555,0,-0.3211,-0.3254,-0.328,-0.3294,-0.3336,-0.3348,-0.3365,-0.3394,-0.3411,-0.3436,-0.3448,-0.3475,-0.3491,-0.3512,-0.3535,-0.3533,-0.3567,-0.3569,-0.3578,-0.3577,-0.3584,-0.3583,-0.3594,-0.3592,-0.3592,-0.3592,-0.3592,0,-0.3219,-0.3239,-0.3277,-0.3293,-0.3316,-0.3342,-0.3364,-0.3384,-0.3409,-0.3429,-0.3448,-0.3467,-0.3496,-0.3518,-0.3536,-0.3562,-0.3568,-0.3579,-0.3583,-0.3577,-0.3576,-0.3587,-0.3586,-0.3593,-0.3593,-0.3592,-0.3592,0,-0.3213,-0.3239,-0.3269,-0.3306,-0.3316,-0.3332,-0.3364,-0.338,-0.34,-0.3425,-0.3433,-0.3464,-0.3491,-0.3516,-0.3552,-0.3564,-0.359,-0.3595,-0.358,-0.3583,-0.359,-0.3589,-0.3608,-0.3612,-0.3607,-0.3607,-0.3607,0,-0.3217,-0.3233,-0.3273,-0.3288,-0.3306,-0.333,-0.3347,-0.3373,-0.3391,-0.3425,-0.3438,-0.3466,-0.3491,-0.3533,-0.3559,-0.3586,-0.3593,-0.3598,-0.3597,-0.3591,-0.3593,-0.3592,-0.3594,-0.3597,-0.3597,-0.3597,-0.3597,0,-0.3221,-0.3234,-0.3259,-0.3288,-0.3309,-0.3333,-0.3358,-0.337,-0.3401,-0.3419,-0.3448,-0.3467,-0.3504,-0.3532,-0.3563,-0.3581,-0.3594,-0.3597,-0.3601,-0.3594,-0.3585,-0.3591,-0.3579,-0.3596,-0.3596,-0.3597,-0.3597,-0.3597,-0.3221,-0.3236,-0.3267,-0.3294,-0.3316,-0.3339,-0.3357,-0.3379,-0.3404,-0.3436,-0.345,-0.3479,-0.3508,-0.3551,-0.3569,-0.3592,-0.3594,-0.3599,-0.3601,-0.3601,-0.36,-0.3582,-0.3597,-0.3597,-0.3597,-0.3598,-0.3598,0,-0.3226,-0.3247,-0.3272,-0.3307,-0.3329,-0.334,-0.3369,-0.3386,-0.3411,-0.3437,-0.3461,-0.3494,-0.3522,-0.355,-0.3579,-0.3592,-0.3599,-0.3599,-0.3598,-0.3603,-0.3596,-0.359,-0.3593,-0.3593,-0.3593,-0.3593,-0.3593,-0.3593,-0.3232,-0.3259,-0.3275,-0.3314,-0.3334,-0.3363,-0.3379,-0.34,-0.3421,-0.3458,-0.3481,-0.35,-0.3527,-0.3558,-0.3584,-0.3592,-0.3602,-0.36,-0.3609,-0.3603,-0.3603,-0.3603,-0.3598,-0.3602,-0.3602,-0.3614,-0.3614,-0.3614]}]]